This is the latest recevied weather packets stored in our database for station/object N4ZIQ. If no packets are shown the sender has not sent any weather packets the latest 10 day(s).
| Time | Temp. | Humidity | Pressure | Rain* | Wind** | Luminosity | Snow |
|---|---|---|---|---|---|---|---|
| 1777502145 | 30.56° C | 50% | 1011.7 hPa | 0 mm | - | 192 W/m² | - |
| 1777501855 | 30.56° C | 50% | 1011.7 hPa | 0 mm | - | 209 W/m² | - |
| 1777501546 | 30.56° C | 49% | 1011.9 hPa | 0 mm | - | 229 W/m² | - |
| 1777501248 | 31.11° C | 49% | 1011.9 hPa | 0 mm | - | 236 W/m² | - |
| 1777500955 | 31.11° C | 50% | 1011.9 hPa | 0 mm | - | 253 W/m² | - |
| 1777500645 | 30.56° C | 50% | 1012 hPa | 0 mm | - | 269 W/m² | - |
| 1777500345 | 30.56° C | 51% | 1012 hPa | 0 mm | - | 287 W/m² | - |
| 1777500056 | 30.56° C | 51% | 1011.9 hPa | 0 mm | - | 301 W/m² | - |
| 1777499745 | 30.56° C | 51% | 1011.9 hPa | 0 mm | - | 318 W/m² | - |
| 1777499445 | 30.56° C | 50% | 1011.9 hPa | 0 mm | - | 330 W/m² | - |
| 1777499166 | 30.56° C | 50% | 1012 hPa | 0 mm | - | 345 W/m² | - |
| 1777498844 | 30.56° C | 51% | 1012.1 hPa | 0 mm | - | 364 W/m² | - |
| 1777498544 | 30.56° C | 50% | 1012.1 hPa | 0 mm | - | 380 W/m² | - |
| 1777498251 | 30.56° C | 49% | 1012 hPa | 0 mm | - | 399 W/m² | - |
| 1777497946 | 31.11° C | 49% | 1012.1 hPa | 0 mm | - | 418 W/m² | - |
| 1777497646 | 31.11° C | 49% | 1012.1 hPa | 0 mm | - | 431 W/m² | - |
| 1777497359 | 31.11° C | 49% | 1012.1 hPa | 0 mm | - | 452 W/m² | - |
| 1777497045 | 31.11° C | 50% | 1012.2 hPa | 0 mm | - | 462 W/m² | - |
| 1777496745 | 31.11° C | 50% | 1012.3 hPa | 0 mm | - | 485 W/m² | - |
| 1777496454 | 31.11° C | 50% | 1012.4 hPa | 0 mm | - | 496 W/m² | - |
| 1777496146 | 31.11° C | 50% | 1012.6 hPa | 0 mm | - | 519 W/m² | - |
| 1777495845 | 30.56° C | 51% | 1012.6 hPa | 0 mm | - | 462 W/m² | - |
| 1777495553 | 30.56° C | 51% | 1012.6 hPa | 0 mm | - | 541 W/m² | - |
| 1777495244 | 30.56° C | 51% | 1012.7 hPa | 0 mm | - | 552 W/m² | - |
| 1777494945 | 30.56° C | 49% | 1012.7 hPa | 0 mm | - | 564 W/m² | - |
* Rain latest hour (hover to see other rain measurements)
** Current wind speed in m/s (hover to see current wind gust speed)